Location: Cudham
(51.3000°N, 0.0667°E)
Time: 17:46:45
(UTC+00:00)

Daily predictions for brighter satellites

Satellite Brightness Start Highest point End
(mag) Time Altitude Azimuth Time Altitude Azimuth Time Altitude Azimuth
Cosmos 1726 Rocket 3.6 20:24:09 10° S 20:28:34 86° E 20:32:59 10° N
MetOp-B 4.3 20:24:20 10° SSE 20:29:42 83° WSW 20:35:06 10° NNW
Cosmos 1833 Rocket 3.3 20:24:48 10° S 20:29:49 34° ESE 20:34:52 10° NE
CZ-4 R/B 3.6 20:26:46 10° SSW 20:30:00 24° W 20:33:14 10° NW
IRS-1A Rocket 4.5 20:25:08 10° SSE 20:31:00 74° ENE 20:36:48 10° NNW
Cosmos 1733 3.8 20:30:24 10° N 20:33:08 28° ENE 20:35:50 10° SE
Cosmos 1076 Rocket 3.6 20:29:48 10° N 20:34:09 86° W 20:38:30 10° S
Cosmos 158 Rocket 4.4 20:33:43 10° S 20:38:45 46° ESE 20:43:53 10° NE
USA 186 4.2 20:36:57 10° SW 20:38:51 17° W 20:40:46 10° NW
USA 245 4.0 20:35:52 10° SSE 20:40:01 58° ENE 20:45:11 10° N
Cosmos 2058 Rocket 3.1 20:39:37 10° S 20:44:03 65° E 20:48:29 10° NNE
Geosat 4.3 20:41:41 10° NNE 20:46:43 76° WNW 20:51:42 10° SW
Helios 1A 2.9 20:43:42 10° NNE 20:47:46 84° ESE 20:51:48 10° SSW
Cosmos 1980 Rocket 2.9 20:46:42 10° NNW 20:52:03 43° NE 20:57:22 10° ESE
PSLV R/B 4.0 20:49:41 11° SE 20:52:36 40° ENE 20:55:42 10° N
Helios 1B rocket 4.2 20:51:25 10° SSW 20:54:31 26° W 20:57:40 10° NW
Resurs 01 Rocket 4.5 20:52:55 10° WSW 20:54:44 12° W 20:56:33 10° WNW
ATLAS CENTAUR R/B 1.2 20:51:17 10° SSW 20:54:54 53° SE 20:58:38 10° NE
Terra 2.0 20:51:12 10° S 20:55:53 71° WSW 21:00:35 10° NNW
NOSS 7 (H) 4.1 20:53:56 10° NW 20:56:49 74° NE 20:59:36 13° SE
USA 234 3.4 20:51:23 10° ENE 20:57:46 53° SE 21:04:06 10° SW
Cosmos 1315 Rocket 4.3 20:55:12 11° SE 20:57:48 20° E 21:00:40 10° NE
SAR-Lupe-2 3.7 20:58:05 10° S 21:01:39 77° WSW 21:05:15 10° NNW
SL-16 R/B 4.2 20:58:22 10° NNW 21:02:32 20° NE 21:06:41 10° E
Meteor 2-2 Rocket 4.4 20:59:41 10° S 21:05:32 65° E 21:11:29 10° NNE
BlueWalker 3 1.9 21:03:37 10° WNW 21:07:13 60° SSW 21:10:12 14° SE
Cosmos 1125 Rocket 3.6 21:03:42 10° NNW 21:09:02 79° WSW 21:14:02 12° SSE
Cosmos 1346 Rocket 2.9 21:07:09 10° NNW 21:10:50 66° W 21:14:29 10° S
Cosmos 2322 Rocket 4.5 21:07:33 10° N 21:11:13 17° NNE 21:14:50 10° ENE
Cosmos 1400 Rocket 3.5 21:07:55 10° SSW 21:11:29 50° WNW 21:15:05 10° N
Cosmos 2366 rocket 4.1 21:08:58 10° N 21:15:21 70° ENE 21:21:09 12° SSE
IRS-1C Rocket 4.2 21:15:27 10° S 21:20:43 76° WSW 21:26:02 10° NNW
Cosmos 44 3.4 21:16:57 10° NW 21:21:26 62° SW 21:25:13 15° SSE
Ariane Rocket 3.0 21:16:59 13° SSE 21:21:36 86° ENE 21:26:43 10° NNW
Cosmos 2298 Rocket 4.2 21:18:23 10° NNW 21:23:43 65° ENE 21:27:57 16° SE
CZ-4C R/B 4.2 21:17:22 10° WNW 21:23:43 34° WSW 21:31:10 10° S
SL-8 Rocket 4.0 21:17:45 10° N 21:23:58 86° E 21:29:41 12° S
Cosmos 1697 Rocket 2.9 21:18:46 10° NW 21:24:24 67° WSW 21:29:17 14° SSE
Cosmos 1238 Rocket 3.3 21:22:12 17° SSE 21:24:26 33° E 21:27:27 10° NNE
Lacrosse 5 rocket 1.9 21:21:11 10° WNW 21:24:27 35° SW 21:26:34 17° SSE
Cosmos 1570 Rocket 4.0 21:21:42 10° S 21:26:53 65° ESE 21:32:07 10° NNE
CENTAUR R/B 4.3 21:23:12 10° NW 21:30:05 39° NNE 21:38:13 10° E
Cosmos 2360 Rocket 4.4 21:27:12 10° NNW 21:31:04 18° NNE 21:34:55 10° ENE
ATLAS 3B R/B 4.3 21:30:06 14° SE 21:32:58 17° ESE 21:37:28 10° ENE
Cosmos-2242 3.5 21:29:11 10° SSW 21:33:25 60° WNW 21:37:39 10° N
Cosmos 2344 4.3 21:27:52 10° WSW 21:35:02 53° NNW 21:42:28 10° NE
Cosmos 1536 3.3 21:31:38 10° N 21:35:18 41° ENE 21:37:32 20° SE
Cosmos 2369 4.1 21:31:29 10° NNW 21:37:05 56° NE 21:41:29 16° SE
Cosmos 1867 3.9 21:31:58 10° NW 21:37:20 58° SW 21:41:23 17° SSE
Cosmos 405 Rocket 4.3 21:37:25 10° NNE 21:39:56 19° ENE 21:41:39 14° ESE
Cosmos 2150 Rocket 4.1 21:34:35 10° NNW 21:40:01 86° ENE 21:44:04 18° SSE
Cosmos 2221 2.7 21:37:30 18° SSE 21:40:19 49° E 21:44:21 10° NNE
SeaSat 1 2.5 21:36:40 18° SE 21:40:23 77° NE 21:45:18 10° NNW
Okean O Rocket 4.0 21:37:52 10° SW 21:40:51 18° W 21:43:50 10° NW
Okean 1 3.3 21:42:37 21° SSE 21:44:50 52° E 21:48:25 10° NNE
Cosmos 2082 Rocket 2.9 21:42:05 17° SSE 21:45:33 34° ESE 21:50:33 10° NE
Cosmos 2341 Rocket 4.3 21:39:21 10° NNW 21:45:35 69° W 21:51:18 12° S
SPOT 3 Rocket 4.0 21:43:33 13° S 21:48:05 56° W 21:53:09 10° NNW
Cosmos 1674 3.1 21:48:35 19° E 21:48:35 19° E 21:49:58 10° NE
Cosmos 192 4.4 21:47:40 10° NNW 21:52:37 75° WSW 21:55:58 21° SSE
ISS -3.4 21:51:37 10° W 21:54:53 48° SSW 21:56:12 29° SSE
Cosmos 773 Rocket 3.9 21:51:31 12° S 21:56:12 65° ESE 22:01:17 10° NNE
COBE Rocket 4.5 21:53:05 10° NNE 21:57:58 43° E 22:00:56 22° SSE
Cosmos 2084 Rocket 3.3 21:55:23 10° SW 21:59:39 73° SE 22:03:53 10° NE
Cosmos 1766 Rocket 3.8 21:55:25 10° N 21:59:46 56° ENE 22:02:12 24° SE
Cosmos 220 Rocket 4.0 21:57:20 21° S 21:59:53 54° ESE 22:03:52 10° NNE
COSMOS 2406 4.2 21:59:10 21° SE 22:01:44 29° ESE 22:06:36 10° NE
ARIANE 6 FM1 Upper Stage 3.7 21:58:08 10° WSW 22:02:02 47° NW 22:05:59 10° NE
Cosmos 1356 Rocket 4.0 22:04:09 10° SSW 22:08:11 55° WNW 22:12:14 10° N
USA 59 Rocket 1.2 22:10:24 15° E 22:10:24 15° E 22:11:25 10° ENE
Cosmos 2333 Rocket 3.6 22:05:34 10° NNW 22:10:39 31° NE 22:15:42 10° ESE
NOSS 3-1 (C) 3.2 22:08:27 10° SW 22:13:21 78° NW 22:19:26 10° NE
Cosmos 1833 Rocket 3.6 22:08:05 10° SW 22:13:34 50° NW 22:19:05 10° NNE
MetOp-A 4.5 22:10:43 22° SE 22:13:51 51° ENE 22:18:51 10° N
Meteor 2-9 Rocket 4.2 22:14:54 10° NNW 22:20:33 85° ENE 22:24:06 24° SSE
Cosmos 1821 Rocket 4.1 22:14:40 10° NNW 22:20:45 68° W 22:25:07 20° S
PKM 3.3 22:18:41 10° WSW 22:21:27 76° SSE 22:25:33 10° ENE
ALOS 2 4.0 22:19:44 17° ESE 22:22:13 28° ENE 22:25:59 10° N
Cosmos 1805 3.4 22:19:30 10° NNW 22:22:54 55° W 22:24:25 29° SSW
Cosmos 2219 Rocket 4.1 22:21:51 10° NNW 22:26:18 23° NE 22:30:43 10° E
Meteor 1-19 Rocket 4.4 22:25:47 23° S 22:29:37 67° E 22:35:36 10° NNE
ATLAS CENTAUR R/B 3.4 22:27:59 10° W 22:31:15 28° NNW 22:34:37 10° NNE
Cosmos 1315 Rocket 3.8 22:30:06 13° SW 22:33:19 41° WNW 22:37:01 10° N
Meteor 1-27 Rocket 4.0 22:30:55 26° SSE 22:33:51 53° E 22:39:15 10° NNE
NOSS 2-1 (D) 3.7 22:36:15 31° ESE 22:36:15 31° ESE 22:38:30 10° ENE
Cosmos 1980 Rocket 3.0 22:30:49 10° NW 22:36:02 41° WSW 22:39:12 22° SSW
Sich 1 3.9 22:32:37 10° N 22:36:37 38° ENE 22:38:23 25° ESE
Helios 1B 4.4 22:33:46 10° NNE 22:38:04 81° ESE 22:40:12 29° S
Genesis I 2.9 22:37:09 10° NW 22:39:51 50° NE 22:40:24 41° E
USA 234 3.5 22:34:28 10° ENE 22:41:00 74° NNW 22:47:31 10° WSW
DELTA 2 DEB (DPAF) 4.4 22:38:10 10° N 22:42:01 54° WNW 22:44:39 19° SW
NOSS 3-1 (A) 3.0 22:38:03 10° SW 22:42:56 85° SE 22:48:58 10° NE
Meteor 2-15 4.5 22:37:39 10° N 22:43:47 72° ENE 22:47:14 27° SSE
BlueWalker 3 3.9 22:42:14 10° W 22:44:08 15° SW 22:44:08 15° SW
SL-16 R/B 2.3 22:41:59 10° NNW 22:47:41 70° ENE 22:51:05 25° SE
Cosmos 1975 2.5 22:45:25 10° N 22:49:07 77° ENE 22:50:13 43° SSE
Meteor 1-11 Rocket 3.9 22:44:52 10° NNW 22:50:20 63° W 22:53:25 26° S
Cosmos 783 Rocket 4.5 22:47:01 20° SSW 22:50:40 87° WNW 22:55:56 10° NNE
Cosmos 1707 3.5 22:51:13 28° ESE 22:51:31 28° E 22:54:28 10° NNE
Cosmos 1500 Rocket 4.2 22:47:32 10° N 22:51:45 46° ENE 22:53:33 29° SE
Cosmos 1538 Rocket 4.5 22:50:41 30° SSE 22:52:34 42° ESE 22:57:25 10° NE
CZ-4C R/B 3.2 22:48:55 10° N 22:52:35 70° WNW 22:54:01 33° SSW
NOSS 2-1 (C) 2.9 22:55:40 50° SE 22:55:40 50° SE 22:58:32 10° NE
Cosmos 2322 Rocket 2.7 22:51:01 10° NNW 22:56:36 53° NE 23:00:25 20° SE
Cosmos 2237 4.2 22:51:30 10° NNW 22:57:13 75° WSW 23:00:06 30° SSE
Spot 4 3.8 22:56:43 32° SSE 22:58:54 77° ENE 23:03:41 10° NNW
Cosmos 1408 Rocket 3.6 22:56:23 10° N 23:00:44 66° ENE 23:02:20 36° SSE
ARIANE 5 R/B 2.6 23:01:14 36° S 23:02:57 72° WSW 23:07:19 10° NNW
Cosmos 1766 2.9 23:01:06 10° NNW 23:04:33 73° W 23:05:17 51° SSW
Cosmos 1842 Rocket 3.5 23:02:48 34° SSW 23:04:40 81° WNW 23:08:59 10° N
Cosmos 1908 2.7 23:02:40 10° N 23:05:56 73° E 23:06:26 58° SE
Cosmos 1470 2.9 23:02:58 10° N 23:06:29 54° ENE 23:07:19 42° SE
Cosmos 1805 Rocket 3.8 23:03:29 10° N 23:07:54 62° ENE 23:09:35 35° SE
Nadezhda 3 Rocket 4.4 23:06:38 19° SSW 23:11:09 60° WNW 23:17:22 10° N
Cosmos 2278 3.6 23:08:12 10° NNW 23:13:52 81° WSW 23:16:39 31° SSE
Cosmos 405 Rocket 3.4 23:11:04 10° NNW 23:14:14 35° W 23:14:58 31° SW
GP-B 4.1 23:10:58 10° NNE 23:15:00 34° E 23:16:31 27° ESE
Exosat Rocket 3.5 23:10:46 10° NNW 23:15:54 81° ENE 23:18:24 31° SSE
Cosmos 2360 Rocket 2.5 23:10:39 10° NNW 23:16:15 61° NE 23:19:47 23° SE
Cosmos 1934 Rocket 4.2 23:10:22 10° NNW 23:16:32 65° W 23:20:02 27° SSW
SeaSat 1 4.2 23:16:18 16° SW 23:18:16 20° WSW 23:21:51 10° WNW
Cosmos 1674 4.4 23:18:16 11° W 23:18:43 11° WNW 23:19:27 10° NW
CZ-2C R/B 3.8 23:15:17 10° N 23:19:40 69° WNW 23:21:45 30° SSW
Cosmos 1535 Rocket 4.5 23:13:34 10° N 23:19:58 87° W 23:23:17 30° S
Cosmos 381 Rocket 4.5 23:17:16 25° SSW 23:21:14 86° ESE 23:27:39 10° NNE
Meteor 2-8 Rocket 4.5 23:15:22 10° N 23:21:35 79° E 23:24:49 30° SSE
CENTAUR R/B 3.4 23:14:00 10° NW 23:22:00 75° NE 23:31:16 10° SE
ATLAS 3B R/B 3.0 23:17:16 22° SSW 23:22:17 65° SE 23:30:02 10° NE
KORONAS-FOTON 3.4 23:22:30 56° S 23:23:10 89° E 23:26:40 10° N
USA 229 DEB 3.9 23:20:46 31° S 23:23:15 45° ESE 23:29:34 10° NE
USA 229 3.9 23:20:54 31° S 23:23:21 45° ESE 23:29:39 10° NE
ASTEX 1 4.2 23:19:31 10° NNE 23:24:09 39° E 23:26:06 27° SE
Spot 1 4.3 23:19:58 10° NNE 23:24:12 56° ESE 23:25:34 39° SSE
Cosmos 1743 Rocket 3.6 23:21:43 10° N 23:26:10 70° ENE 23:27:46 38° SSE
Cosmos 2082 Rocket 2.9 23:23:59 10° SW 23:29:26 51° NW 23:34:57 10° NNE
Cosmos 1605 Rocket 4.0 23:25:41 10° NNW 23:32:03 81° W 23:35:18 31° S
Landsat 5 3.7 23:30:13 10° N 23:34:21 64° WNW 23:36:07 33° SW
Cosmos 1842 2.8 23:36:29 58° SSW 23:37:05 81° W 23:40:34 10° N
Cosmos 1420 Rocket 4.0 23:35:29 10° NNW 23:40:50 79° ENE 23:43:26 31° SSE
USA-17 4.4 23:40:21 10° NW 23:43:25 68° NE 23:44:07 48° ESE
COSMOS 2406 3.7 23:41:09 16° SW 23:45:42 58° NW 23:51:22 10° NNE
Cosmos 1455 3.5 23:44:25 10° NNE 23:46:35 19° ENE 23:47:02 19° E
Cosmos 1300 2.1 23:47:01 10° N 23:50:11 71° ENE 23:50:26 66° ESE
